Home   Weather   Horsham   Past weeks

Flag for United Kingdom Past Weather in Horsham, England, United Kingdom — Yesterday and Last 2 Weeks

Now
63 °F

Scattered showers. Overcast.


Feels Like: 63 °F
Forecast: 51 / 70 °F
Wind: 12 mph from Southwest

Location: London / Gatwick Airport

Current Time: Sep 27, 2016 at 11:37:18 AM

Latest Report: Sep 27, 2016 at 11:20 AM


Visibility: N/A

Pressure: 30.21 "Hg

Humidity: 83%

Dew Point: 57 °F

Location of HorshamLocation

Past Weather in Horsham — Graph

°F

Horsham Temperature Yesterday

Maximum temperature yesterday: 64 °F (at 2:50 PM)
Minimum temperature yesterday: 46 °F (at 11:20 PM)
Average temperature yesterday: 55 °F

High & Low Weather Summary for the Past Weeks

 TemperatureHumidityPressure
High84 °F (Sep 13, 12:20 PM)100% (Sep 13, 4:50 AM)30.30 "Hg (Sep 13, 4:50 AM)
Low45 °F (Sep 23, 6:50 AM)46% (Sep 23, 2:50 PM)29.74 "Hg (Sep 14, 3:50 AM)
Average61 °F81%30.03 "Hg
* Reported Sep 12 10:20 AM — Sep 27 10:20 AM, Horsham, Weather by CustomWeather, © 2016

Note: Actual official high and low records may vary slightly from our data, if they occured in-between our weather recording intervals... More about our weather records

Advertising

Horsham Weather History for the Previous 24 Hours

Scroll right to see more
 ConditionsComfort  
Time TempWeatherWind HumidityBarometerVisibility
10:20 AM
Tue, Sep 27
63 °FBroken clouds.9 mph77%30.21 "HgN/A
9:50 AM63 °FScattered showers. Broken clouds.13 mph77%30.18 "HgN/A
9:20 AM63 °FPartly sunny.9 mph73%30.18 "HgN/A
8:50 AM61 °FPartly sunny.7 mph77%30.18 "HgN/A
8:20 AM59 °FPartly sunny.5 mph88%30.18 "HgN/A
7:50 AM55 °FBroken clouds.3 mph100%30.18 "HgN/A
7:20 AM54 °FScattered clouds.2 mph100%30.18 "HgN/A
6:50 AM52 °FPassing clouds.5 mph94%30.18 "HgN/A
6:20 AM50 °FClear.3 mph100%30.18 "Hg10 mi
5:50 AM48 °FClear.3 mph100%30.18 "Hg10 mi
5:20 AM48 °FClear.No wind100%30.15 "Hg10 mi
4:50 AM46 °FClear.No wind100%30.15 "Hg10 mi
4:20 AM46 °FClear.No wind100%30.15 "Hg10 mi
3:50 AM45 °FClear.No wind100%30.18 "Hg10 mi
3:20 AM46 °FClear.2 mph93%30.18 "Hg10 mi
2:50 AM46 °FClear.3 mph93%30.18 "Hg10 mi
2:20 AM45 °FClear.2 mph100%30.18 "Hg10 mi
1:50 AM45 °FClear.3 mph100%30.18 "Hg10 mi
1:20 AM45 °FClear.2 mph100%30.18 "Hg10 mi
12:50 AM45 °FClear.No wind100%30.18 "Hg10 mi
12:20 AM45 °FPassing clouds.2 mph100%30.18 "HgN/A
11:50 PM
Mon, Sep 26
46 °FClear.No wind100%30.18 "Hg10 mi
11:20 PM46 °FClear.2 mph100%30.18 "Hg10 mi
10:50 PM48 °FClear.2 mph100%30.18 "Hg10 mi
10:20 PM50 °FClear.No wind94%30.18 "Hg10 mi
9:50 PM50 °FClear.2 mph94%30.18 "Hg10 mi
9:20 PM52 °FClear.3 mph94%30.18 "Hg10 mi
8:50 PM52 °FClear.2 mph94%30.18 "Hg10 mi
8:20 PM54 °FClear.2 mph88%30.18 "Hg10 mi
7:50 PM55 °FClear.2 mph88%30.18 "Hg10 mi
7:20 PM59 °FClear.3 mph77%30.18 "Hg10 mi
6:50 PM59 °FPassing clouds.5 mph77%30.18 "HgN/A
6:20 PM61 °FPassing clouds.5 mph72%30.18 "HgN/A
5:50 PM61 °FScattered clouds.7 mph72%30.15 "HgN/A
5:20 PM63 °FScattered clouds.8 mph68%30.18 "HgN/A
4:50 PM63 °FScattered clouds.9 mph64%30.18 "HgN/A
4:20 PM63 °FScattered clouds.7 mph68%30.18 "HgN/A
3:50 PM64 °FScattered clouds.8 mph60%30.18 "HgN/A
3:20 PM63 °FBroken clouds.10 mph68%30.18 "HgN/A
2:50 PM64 °FScattered clouds.12 mph60%30.15 "HgN/A
2:20 PM63 °FPassing clouds.10 mph68%30.18 "HgN/A
1:50 PM63 °FPassing clouds.12 mph64%30.18 "HgN/A
1:20 PM63 °FScattered clouds.12 mph64%30.18 "HgN/A
12:50 PM63 °FScattered clouds.12 mph68%30.18 "HgN/A
12:20 PM63 °FScattered clouds.12 mph68%30.18 "HgN/A
11:50 AM63 °FPassing clouds.6 mph73%30.18 "HgN/A
11:20 AM61 °FPassing clouds.7 mph72%30.18 "HgN/A
Weather by CustomWeather, © 2016

See weather overviewHow to use our weather pages